[[{"header":{"parameterUnit":"m.s-1","parameterCategory":1,"la1":30.2991,"la2":30.254,"lo1":-89.0895,"lo2":-89.0444,"dy":0.0017,"dx":0.0017,"nx":28,"ny":28,"refTime":"2024-05-23T09:00:00:Z","depth":0,"parameterNumber":2,"parameterNumberName":"U-component_of_WINDS"},"data":[0,0,0,0,0,0,0,0,0,0,0,0,0,0,0,0,0,0,0,0,0,0,0,0,0,0,0,0,0,0,0,0,0,0,0,0,0,0,0,0,0,0,0,0,0,0,0,0,0,0,0,0,0,0,0,0,0,0,-0.546,-0.5459,0,-0.5336,-0.5334,-0.5333,-0.5256,-0.5256,-0.5255,-0.5255,-0.5127,-0.5124,-0.5121,0,0,0,0,0,0,0,0,0,0,0,0,0,-0.563,-0.5627,-0.546,-0.5458,-0.5457,-0.5336,-0.5334,-0.5333,-0.5256,-0.5256,-0.5255,-0.5255,-0.5128,-0.5124,-0.512,0,0,0,0,0,0,0,0,0,0,0,0,0,-0.5536,-0.5627,-0.546,-0.5404,-0.5398,-0.5336,-0.5334,-0.5332,-0.5256,-0.5256,-0.5255,-0.5255,-0.5129,-0.5124,-0.512,-0.5104,0,0,-0.5106,-0.5104,0,0,0,0,0,0,0,0,-0.5542,-0.553,-0.5414,-0.5408,-0.5401,-0.5311,-0.5347,-0.5256,-0.5257,-0.531,-0.5255,-0.5254,-0.5188,-0.5179,-0.5157,-0.5098,-0.5092,-0.5106,-0.5103,-0.5101,-0.51,0,0,0,0,0,0,0,-0.5548,-0.5535,-0.5411,-0.5412,-0.5404,-0.5385,-0.5371,-0.533,-0.5254,-0.5305,-0.53,-0.5286,-0.5185,-0.5162,-0.5153,-0.5091,-0.5106,-0.5102,-0.5099,-0.5097,-0.5013,-0.5013,0,0,0,0,0,0,-0.5564,-0.5541,-0.5415,-0.5407,-0.5471,-0.5383,-0.5367,-0.534,-0.5254,-0.5241,-0.5287,-0.5283,-0.517,-0.5159,-0.5149,-0.5124,-0.5101,-0.5097,-0.5094,-0.5012,-0.5013,-0.5013,0,0,0,0,0,0,-0.5568,-0.5553,-0.542,-0.5472,-0.5454,-0.538,-0.5351,-0.5338,-0.5315,-0.524,-0.5226,-0.5277,-0.5169,-0.5155,-0.5116,-0.5118,-0.5095,-0.509,-0.5011,-0.5012,-0.5013,-0.5075,0,0,0,0,0,0,-0.5573,-0.5555,-0.5548,-0.5473,-0.5451,-0.5389,-0.5351,-0.5336,-0.5307,-0.5301,-0.5227,-0.5214,-0.5167,-0.5123,-0.5111,-0.5112,-0.5087,-0.5011,-0.5012,-0.5013,-0.5072,-0.5078,-0.5082,0,0,0,0,0,-0.5579,-0.557,-0.5548,-0.5534,-0.5441,-0.539,-0.5377,-0.5323,-0.5308,-0.53,-0.5253,-0.5217,-0.5121,-0.512,-0.5106,-0.5105,-0.501,-0.5012,-0.5013,-0.507,-0.5077,-0.5082,0,0,0,0,0,0,-0.5647,-0.5559,-0.5534,-0.55,-0.5453,-0.5377,-0.5365,-0.5332,-0.5288,-0.5284,-0.5219,-0.5203,-0.517,-0.5133,-0.5134,-0.5085,-0.5061,-0.506,-0.511,-0.5115,-0.512,-0.5129,-0.5083,0,0,0,0,0,-0.5659,-0.5624,-0.5549,-0.5527,-0.5505,-0.544,-0.5415,-0.5378,-0.5326,-0.5305,-0.5254,-0.5205,-0.5164,-0.5138,-0.5096,-0.5067,-0.505,-0.506,-0.5065,-0.5069,-0.5068,-0.5051,-0.5054,-0.5017,-0.5017,-0.5017,0,0,-0.5681,-0.5629,-0.5611,-0.5539,-0.5498,-0.5464,-0.5423,-0.5388,-0.5362,-0.53,-0.5259,-0.5221,-0.5162,-0.5128,-0.5111,-0.5097,-0.5075,-0.5071,-0.5075,-0.5071,-0.5052,-0.5056,-0.5059,-0.5018,-0.5017,-0.5017,0,0,-0.5705,-0.5662,-0.5639,-0.5599,-0.5537,-0.5494,-0.5489,-0.5418,-0.539,-0.5349,-0.5302,-0.527,-0.52,-0.5159,-0.513,-0.514,-0.5105,-0.5128,-0.5154,-0.5137,-0.514,-0.5142,-0.5146,-0.5147,-0.5128,-0.5128,-0.5128,0,-0.574,-0.5687,-0.5631,-0.5599,-0.5569,-0.5512,-0.5488,-0.5451,-0.538,-0.536,-0.5346,-0.5257,-0.5213,-0.5169,-0.5172,-0.515,-0.5142,-0.5135,-0.5144,-0.5146,-0.5147,-0.515,-0.5151,-0.5131,-0.513,-0.513,-0.513,0,-0.5733,-0.5697,-0.5686,-0.5618,-0.5587,-0.5559,-0.5499,-0.5474,-0.544,-0.5399,-0.5358,-0.5304,-0.5249,-0.5237,-0.5203,-0.5188,-0.5181,-0.5157,-0.5131,-0.5155,-0.5156,-0.5156,-0.5135,-0.5134,-0.5133,-0.5132,0,0,-0.5794,-0.5697,-0.5694,-0.5663,-0.5592,-0.5562,-0.5533,-0.548,-0.546,-0.5413,-0.5386,-0.5329,-0.5306,-0.5272,-0.5234,-0.522,-0.5231,-0.5196,-0.5194,-0.5204,-0.5211,-0.5229,-0.5231,-0.5208,-0.5208,-0.5208,-0.5216,0,-0.5807,-0.575,-0.5699,-0.5661,-0.5626,-0.5573,-0.5546,-0.55,-0.5461,-0.5426,-0.5383,-0.5343,-0.5316,-0.5296,-0.528,-0.5233,-0.5231,-0.5232,-0.5181,-0.518,-0.5197,-0.5231,-0.525,-0.526,-0.5216,-0.5216,-0.5216,0,-0.5813,-0.5768,-0.5727,-0.566,-0.5643,-0.5621,-0.5569,-0.5536,-0.5483,-0.5456,-0.5419,-0.5379,-0.5345,-0.5325,-0.5276,-0.5278,-0.5255,-0.5229,-0.5228,-0.522,-0.5199,-0.5224,-0.5262,-0.5263,-0.5216,-0.5216,-0.5216,0,-0.5861,-0.5791,-0.5757,-0.5732,-0.5653,-0.5638,-0.5605,-0.555,-0.5523,-0.5478,-0.5459,-0.541,-0.5384,-0.5347,-0.5295,-0.5285,-0.5253,-0.5228,-0.5228,-0.523,-0.5223,-0.5224,-0.5257,-0.521,-0.521,-0.521,-0.521,0,-0.5879,-0.5856,-0.5777,-0.5756,-0.5728,-0.5671,-0.5645,-0.5607,-0.5559,-0.553,-0.5481,-0.5454,-0.5388,-0.5353,-0.5313,-0.5279,-0.5267,-0.5244,-0.5233,-0.5248,-0.5251,-0.523,-0.5228,-0.521,-0.521,-0.521,-0.521,0,-0.5928,-0.5874,-0.5833,-0.5763,-0.5744,-0.5727,-0.5666,-0.5643,-0.5602,-0.5566,-0.5554,-0.5489,-0.5446,-0.5391,-0.5331,-0.5303,-0.5274,-0.5258,-0.5292,-0.5285,-0.5289,-0.5289,-0.531,-0.5309,-0.5264,-0.5265,-0.5265,0,-0.5942,-0.5923,-0.585,-0.5827,-0.5795,-0.5759,-0.573,-0.5673,-0.5645,-0.5584,-0.5569,-0.5522,-0.5482,-0.5416,-0.5363,-0.5317,-0.5299,-0.5309,-0.5291,-0.5307,-0.5298,-0.5299,-0.5297,-0.5313,-0.5314,-0.5315,-0.5315,0,-0.5974,-0.5949,-0.5909,-0.5861,-0.5829,-0.5788,-0.5745,-0.5729,-0.5663,-0.5634,-0.559,-0.5559,-0.5498,-0.5452,-0.5399,-0.5364,-0.5329,-0.5321,-0.5319,-0.5333,-0.5353,-0.5342,-0.5303,-0.5321,-0.532,-0.532,-0.5319,-0.5319,-0.6005,-0.5985,-0.5931,-0.5889,-0.5851,-0.5813,-0.5788,-0.5744,-0.5706,-0.5652,-0.5621,-0.5578,-0.5526,-0.5451,-0.5418,-0.5383,-0.537,-0.5366,-0.5365,-0.5365,-0.5369,-0.536,-0.5373,-0.5373,-0.5373,-0.5373,-0.5372,0,-0.6033,-0.5996,-0.5958,-0.59,-0.5867,-0.5838,-0.5789,-0.5763,-0.5726,-0.568,-0.5642,-0.5591,-0.5547,-0.5492,-0.5444,-0.5427,-0.5409,-0.5416,-0.5416,-0.5409,-0.5384,-0.5391,-0.5431,-0.5431,-0.5431,-0.5431,-0.5431,-0.5431,-0.6044,-0.6009,-0.5978,-0.5924,-0.5887,-0.5845,-0.5819,-0.5783,-0.5747,-0.5692,-0.5656,-0.562,-0.557,-0.5519,-0.5477,-0.5462,-0.5446,-0.5458,-0.5438,-0.5416,-0.541,-0.5405,-0.5411,-0.5455,-0.5455,-0.5465,-0.5465,-0.5465]},{"header":{"parameterUnit":"m.s-1","parameterCategory":1,"la1":30.2991,"la2":30.254,"lo1":-89.0895,"lo2":-89.0444,"dy":0.0017,"dx":0.0017,"nx":28,"ny":28,"refTime":"2024-05-23T09:00:00:Z","depth":0,"parameterNumber":3,"parameterNumberName":"V-component_of_WINDS"},"data":[0,0,0,0,0,0,0,0,0,0,0,0,0,0,0,0,0,0,0,0,0,0,0,0,0,0,0,0,0,0,0,0,0,0,0,0,0,0,0,0,0,0,0,0,0,0,0,0,0,0,0,0,0,0,0,0,0,0,5.7289,5.7289,0,5.7286,5.7286,5.7286,5.7255,5.7255,5.7254,5.7253,5.7248,5.7249,5.7249,0,0,0,0,0,0,0,0,0,0,0,0,0,5.7268,5.7268,5.7289,5.7289,5.7289,5.7286,5.7286,5.7286,5.7256,5.7255,5.7254,5.7253,5.7248,5.7248,5.7249,0,0,0,0,0,0,0,0,0,0,0,0,0,5.7272,5.7269,5.7289,5.7273,5.7272,5.7286,5.7286,5.7286,5.7256,5.7255,5.7254,5.7252,5.7248,5.7248,5.7249,5.7277,0,0,5.7252,5.7252,0,0,0,0,0,0,0,0,5.7272,5.7273,5.7276,5.7275,5.7273,5.727,5.7276,5.7283,5.7256,5.7262,5.7253,5.7252,5.7256,5.7256,5.7258,5.7277,5.7276,5.7252,5.7252,5.7253,5.7253,0,0,0,0,0,0,0,5.7272,5.7273,5.7287,5.7276,5.7274,5.7266,5.7266,5.7277,5.7265,5.7261,5.7259,5.7259,5.7255,5.7257,5.7258,5.7276,5.7252,5.7253,5.7253,5.7253,5.7319,5.732,0,0,0,0,0,0,5.7274,5.7273,5.7288,5.7287,5.727,5.7268,5.7267,5.7272,5.7265,5.7263,5.726,5.7258,5.7256,5.7257,5.7257,5.729,5.7253,5.7254,5.7254,5.7318,5.7319,5.7321,0,0,0,0,0,0,5.7273,5.7275,5.7288,5.728,5.7281,5.7269,5.7275,5.7272,5.7275,5.7264,5.7262,5.7265,5.7255,5.7256,5.7273,5.729,5.7254,5.7255,5.7316,5.7318,5.732,5.7356,0,0,0,0,0,0,5.7273,5.7275,5.7286,5.728,5.7281,5.7304,5.7276,5.7273,5.7276,5.7273,5.7268,5.7266,5.7255,5.7272,5.7274,5.729,5.7255,5.7315,5.7317,5.7319,5.7353,5.7358,5.7363,0,0,0,0,0,5.7272,5.7295,5.7286,5.7288,5.7294,5.7305,5.7305,5.7292,5.7278,5.7288,5.7282,5.7266,5.7287,5.7274,5.7275,5.7292,5.7314,5.7317,5.7319,5.7351,5.7357,5.7363,0,0,0,0,0,0,5.7302,5.7294,5.7284,5.7306,5.7306,5.7299,5.7312,5.73,5.7303,5.73,5.7284,5.7283,5.7302,5.7299,5.7284,5.732,5.7298,5.7301,5.7321,5.7327,5.7333,5.7333,5.7256,0,0,0,0,0,5.7311,5.7321,5.7313,5.7333,5.7334,5.7323,5.7327,5.7318,5.7317,5.7317,5.7311,5.7311,5.7318,5.7322,5.7328,5.7352,5.7351,5.7365,5.737,5.7375,5.7378,5.7392,5.7398,5.733,5.733,5.733,0,0,5.733,5.7327,5.7334,5.7339,5.7338,5.7349,5.7323,5.7335,5.7342,5.7318,5.7334,5.733,5.7329,5.735,5.7359,5.7348,5.7396,5.7378,5.7382,5.7382,5.7395,5.7402,5.7407,5.7332,5.7331,5.7331,0,0,5.7369,5.7368,5.7385,5.7385,5.7385,5.7378,5.7382,5.7378,5.7375,5.739,5.7373,5.7381,5.7393,5.7393,5.7395,5.7437,5.7423,5.7439,5.7466,5.748,5.7485,5.749,5.7506,5.7511,5.7442,5.7442,5.7442,0,5.7392,5.7408,5.7395,5.7409,5.7412,5.7392,5.7409,5.741,5.7411,5.7414,5.7401,5.7417,5.7414,5.7436,5.7446,5.7448,5.7452,5.7439,5.7486,5.749,5.7494,5.7509,5.7515,5.7444,5.7444,5.7444,5.7444,0,5.7437,5.7448,5.7462,5.7465,5.747,5.7485,5.7475,5.7481,5.7472,5.7466,5.7483,5.748,5.7485,5.7489,5.7479,5.751,5.7503,5.7489,5.7466,5.7503,5.7517,5.7522,5.7447,5.7446,5.7446,5.7445,0,0,5.7494,5.7491,5.7497,5.7499,5.7498,5.7506,5.7521,5.7527,5.7533,5.7535,5.7547,5.7558,5.7546,5.7547,5.7537,5.755,5.7585,5.7534,5.7533,5.7544,5.7619,5.763,5.7637,5.7575,5.7576,5.7577,5.7619,0,5.7533,5.7559,5.7549,5.7575,5.7586,5.7568,5.7581,5.7582,5.7577,5.7586,5.758,5.7589,5.7571,5.7572,5.7583,5.7578,5.7599,5.7575,5.7587,5.7587,5.7588,5.7644,5.7656,5.7696,5.7625,5.7625,5.7626,0,5.7581,5.7587,5.7615,5.7614,5.7618,5.763,5.7636,5.7644,5.7645,5.7641,5.7644,5.7632,5.7646,5.7625,5.7645,5.7628,5.7633,5.7631,5.7632,5.7633,5.7609,5.7647,5.7708,5.7714,5.7634,5.7634,5.7633,0,5.7621,5.7635,5.7655,5.7657,5.7655,5.7665,5.7664,5.7664,5.7669,5.7674,5.7677,5.7683,5.7687,5.7692,5.7682,5.7667,5.7704,5.7681,5.7701,5.7701,5.7709,5.7709,5.7773,5.7712,5.7712,5.7712,5.7711,0,5.7665,5.7684,5.7673,5.7684,5.7705,5.7693,5.7713,5.7711,5.7711,5.7722,5.7707,5.7717,5.7703,5.7713,5.7705,5.7723,5.7725,5.7722,5.772,5.7724,5.7724,5.7726,5.7723,5.7713,5.7713,5.7712,5.7712,0,5.7713,5.7706,5.7726,5.7724,5.7724,5.7739,5.7738,5.7748,5.7744,5.7758,5.7761,5.7753,5.7763,5.7754,5.7763,5.7758,5.7783,5.7777,5.7783,5.7782,5.7802,5.7801,5.787,5.7879,5.7812,5.7813,5.7813,0,5.7742,5.7756,5.7756,5.7763,5.7764,5.7775,5.7781,5.777,5.7777,5.778,5.7791,5.78,5.7807,5.7824,5.7819,5.7827,5.7821,5.7844,5.7821,5.7825,5.7822,5.7821,5.7823,5.7849,5.785,5.785,5.7851,0,5.7794,5.7791,5.78,5.7809,5.7816,5.7822,5.7827,5.7833,5.7822,5.783,5.7842,5.7847,5.7858,5.7868,5.7874,5.7873,5.786,5.7858,5.7863,5.7867,5.7871,5.787,5.7796,5.7857,5.7856,5.7856,5.7855,5.7855,5.7834,5.7846,5.7849,5.786,5.7863,5.7868,5.7879,5.7876,5.7885,5.7894,5.7887,5.7901,5.7903,5.791,5.7911,5.7921,5.7911,5.7919,5.792,5.7923,5.7926,5.787,5.7922,5.7922,5.7922,5.7922,5.7922,0,5.7886,5.7888,5.7898,5.7906,5.7915,5.7904,5.7909,5.7917,5.7929,5.7933,5.794,5.7954,5.7963,5.796,5.7969,5.7978,5.7972,5.798,5.7979,5.798,5.7934,5.7929,5.7985,5.7985,5.7985,5.7985,5.7985,5.7985,5.7915,5.7935,5.7932,5.7954,5.7955,5.797,5.7974,5.7978,5.7981,5.7997,5.8006,5.8004,5.8005,5.8013,5.8022,5.8021,5.8025,5.8035,5.8032,5.7989,5.7983,5.7977,5.7972,5.8036,5.8036,5.8077,5.8077,5.8077]}]]